| time (UTC) | temp C | wind direction | speed KPH | gust KPH | rain 1hr cm | rain 24hr cm | rain mn cm | humidity % | barometer mb |
| 20260906191603 | 15 | 254 | 0.0 | 3.2 | 0.00 | 0.03 | 0.00 | 82 | 1023.1 |
| 20260906185604 | 15 | 254 | 0.0 | 0.0 | 0.00 | 0.03 | 0.00 | 82 | 1023.2 |
| 20260906184604 | 15 | 254 | 0.0 | 0.0 | 0.00 | 0.03 | 0.00 | 82 | 1023.2 |
| 20260906183605 | 15 | 254 | 0.0 | 0.0 | 0.00 | 0.03 | 0.00 | 80 | 1023.2 |
| 20260906181605 | 15 | 254 | 0.0 | 0.0 | 0.00 | 0.03 | 0.00 | 79 | 1023.4 |
| 20260906180603 | 15 | 254 | 0.0 | 0.0 | 0.00 | 0.03 | 0.00 | 77 | 1023.3 |
| 20260906180050 | 15 | 254 | 0.0 | 0.0 | 0.00 | 0.03 | 0.00 | 76 | 1023.4 |
| 20260906173605 | 16 | 254 | 0.0 | 0.0 | 0.00 | 0.03 | 0.00 | 70 | 1023.6 |
| 20260906173048 | 16 | 254 | 0.0 | 0.0 | 0.00 | 0.03 | 0.00 | 69 | 1023.7 |
| 20260906171605 | 17 | 254 | 0.0 | 0.0 | 0.00 | 0.03 | 0.00 | 69 | 1023.8 |
| 20260906170603 | 17 | 254 | 1.6 | 4.8 | 0.00 | 0.03 | 0.00 | 69 | 1023.9 |
| 20260906165605 | 17 | 254 | 1.6 | 4.8 | 0.00 | 0.03 | 0.00 | 67 | 1023.8 |
| 20260906164607 | 17 | 254 | 3.2 | 6.4 | 0.00 | 0.03 | 0.00 | 66 | 1023.9 |
| 20260906163604 | 17 | 240 | 3.2 | 12.9 | 0.00 | 0.03 | 0.00 | 65 | 1023.8 |
| 20260906162614 | 18 | 263 | 4.8 | 12.9 | 0.00 | 0.03 | 0.00 | 63 | 1024.0 |
| 20260906161614 | 18 | 280 | 4.8 | 14.5 | 0.00 | 0.03 | 0.00 | 57 | 1024.0 |
| 20260906160611 | 18 | 274 | 4.8 | 11.3 | 0.00 | 0.03 | 0.00 | 64 | 1024.0 |
| 20260906155608 | 18 | 229 | 4.8 | 14.5 | 0.00 | 0.03 | 0.00 | 65 | 1024.1 |
| 20260906154607 | 18 | 201 | 8.0 | 16.1 | 0.00 | 0.03 | 0.00 | 65 | 1024.2 |
| 20260906154102 | 19 | 245 | 4.8 | 16.1 | 0.00 | 0.03 | 0.00 | 62 | 1024.2 |
| 20260906152606 | 19 | 261 | 4.8 | 16.1 | 0.00 | 0.03 | 0.00 | 62 | 1024.2 |
| 20260906151605 | 19 | 232 | 8.0 | 16.1 | 0.00 | 0.03 | 0.00 | 61 | 1024.3 |
| 20260906150605 | 19 | 270 | 3.2 | 16.1 | 0.00 | 0.03 | 0.00 | 57 | 1024.3 |
| 20260906145603 | 19 | 319 | 8.0 | 17.7 | 0.00 | 0.03 | 0.00 | 61 | 1024.3 |
| 20260906144603 | 20 | 220 | 4.8 | 14.5 | 0.00 | 0.03 | 0.00 | 63 | 1024.2 |
| 20260906143603 | 18 | 150 | 3.2 | 8.0 | 0.00 | 0.03 | 0.00 | 62 | 1024.2 |
| 20260906142606 | 18 | 213 | 4.8 | 12.9 | 0.00 | 0.03 | 0.00 | 67 | 1024.4 |
| 20260906141603 | 18 | 209 | 6.4 | 12.9 | 0.00 | 0.03 | 0.00 | 69 | 1024.5 |
| 20260906140603 | 18 | 215 | 4.8 | 14.5 | 0.00 | 0.03 | 0.00 | 68 | 1024.5 |
| 20260906135606 | 18 | 277 | 6.4 | 14.5 | 0.00 | 0.03 | 0.00 | 63 | 1024.4 |
| 20260906134604 | 20 | 265 | 8.0 | 16.1 | 0.00 | 0.03 | 0.00 | 63 | 1024.5 |
| 20260906131609 | 18 | 329 | 8.0 | 16.1 | 0.00 | 0.10 | 0.00 | 66 | 1024.6 |
| 20260906130605 | 18 | 323 | 9.7 | 20.9 | 0.00 | 0.13 | 0.00 | 67 | 1024.7 |
| 20260906125603 | 18 | 230 | 4.8 | 17.7 | 0.00 | 0.13 | 0.00 | 69 | 1024.8 |
| 20260906124604 | 18 | 218 | 8.0 | 19.3 | 0.00 | 0.13 | 0.00 | 69 | 1024.8 |
| 20260906123604 | 18 | 331 | 11.3 | 22.5 | 0.00 | 0.13 | 0.00 | 70 | 1024.7 |
| 20260906122603 | 18 | 250 | 8.0 | 22.5 | 0.00 | 0.15 | 0.00 | 69 | 1024.8 |
| 20260906121604 | 18 | 201 | 8.0 | 20.9 | 0.00 | 0.15 | 0.00 | 66 | 1024.9 |
| 20260906120605 | 18 | 261 | 6.4 | 20.9 | 0.00 | 0.15 | 0.00 | 61 | 1024.8 |
| 20260906115606 | 19 | 348 | 11.3 | 20.9 | 0.00 | 0.15 | 0.00 | 65 | 1024.9 |
| 20260906115049 | 18 | 260 | 8.0 | 20.9 | 0.00 | 0.15 | 0.00 | 64 | 1024.8 |
| 20260906114048 | 19 | 272 | 9.7 | 19.3 | 0.00 | 0.15 | 0.00 | 62 | 1024.8 |
| 20260906112603 | 18 | 302 | 6.4 | 19.3 | 0.00 | 0.15 | 0.00 | 64 | 1024.8 |
| 20260906111606 | 19 | 252 | 9.7 | 19.3 | 0.00 | 0.15 | 0.00 | 61 | 1024.7 |
| 20260906110603 | 19 | 286 | 9.7 | 20.9 | 0.00 | 0.15 | 0.00 | 57 | 1024.7 |
| 20260906105605 | 18 | 311 | 4.8 | 17.7 | 0.00 | 0.15 | 0.00 | 66 | 1024.8 |
| 20260906104603 | 18 | 257 | 6.4 | 19.3 | 0.00 | 0.30 | 0.00 | 67 | 1025.0 |
| 20260906103604 | 17 | 307 | 8.0 | 20.9 | 0.00 | 0.33 | 0.00 | 68 | 1024.8 |
| 20260906102604 | 17 | 336 | 9.7 | 17.7 | 0.00 | 0.33 | 0.00 | 69 | 1024.8 |
| 20260906101604 | 17 | 301 | 9.7 | 19.3 | 0.00 | 0.33 | 0.00 | 69 | 1024.7 |
| 20260906100603 | 17 | 289 | 9.7 | 17.7 | 0.00 | 0.33 | 0.00 | 69 | 1024.7 |
| 20260906095603 | 17 | 307 | 6.4 | 19.3 | 0.00 | 0.33 | 0.00 | 70 | 1024.7 |
| 20260906095056 | 17 | 294 | 4.8 | 17.7 | 0.00 | 0.33 | 0.00 | 69 | 1024.7 |
| 20260906093603 | 17 | 306 | 14.5 | 19.3 | 0.00 | 0.33 | 0.00 | 67 | 1024.7 |
| 20260906092605 | 17 | 325 | 6.4 | 16.1 | 0.00 | 0.33 | 0.00 | 65 | 1024.4 |
| 20260906091606 | 17 | 265 | 8.0 | 22.5 | 0.00 | 0.33 | 0.00 | 71 | 1024.4 |
| 20260906090605 | 16 | 263 | 11.3 | 17.7 | 0.00 | 0.33 | 0.00 | 71 | 1024.5 |
| 20260906085603 | 16 | 326 | 6.4 | 19.3 | 0.00 | 0.33 | 0.00 | 72 | 1024.4 |
| 20260906084603 | 16 | 315 | 12.9 | 20.9 | 0.00 | 0.33 | 0.00 | 71 | 1024.4 |
| 20260906083604 | 16 | 275 | 4.8 | 16.1 | 0.00 | 0.33 | 0.00 | 75 | 1024.3 |
| 20260906083045 | 16 | 306 | 11.3 | 19.3 | 0.00 | 0.33 | 0.00 | 77 | 1024.4 |
| 20260906081603 | 16 | 304 | 8.0 | 17.7 | 0.00 | 0.33 | 0.00 | 77 | 1024.3 |
| 20260906080604 | 16 | 340 | 8.0 | 20.9 | 0.00 | 0.33 | 0.00 | 77 | 1024.3 |
| 20260906075607 | 15 | 282 | 8.0 | 17.7 | 0.00 | 0.33 | 0.00 | 78 | 1024.3 |
| 20260906074604 | 15 | 310 | 4.8 | 14.5 | 0.00 | 0.33 | 0.00 | 79 | 1024.2 |
| 20260906073606 | 15 | 316 | 4.8 | 17.7 | 0.00 | 0.33 | 0.00 | 80 | 1024.1 |
| 20260906072612 | 14 | 278 | 6.4 | 11.3 | 0.00 | 0.33 | 0.00 | 81 | 1024.0 |
| 20260906071605 | 14 | 256 | 4.8 | 14.5 | 0.00 | 0.33 | 0.00 | 82 | 1024.0 |
| 20260906070607 | 13 | 248 | 6.4 | 12.9 | 0.00 | 0.33 | 0.00 | 84 | 1023.7 |
| 20260906065605 | 13 | 275 | 1.6 | 12.9 | 0.00 | 0.33 | 0.00 | 86 | 1023.8 |
| 20260906064603 | 13 | 248 | 1.6 | 6.4 | 0.00 | 0.33 | 0.00 | 87 | 1023.6 |
| 20260906063605 | 13 | 263 | 4.8 | 11.3 | 0.00 | 0.33 | 0.00 | 88 | 1023.3 |
| 20260906062605 | 12 | 234 | 1.6 | 6.4 | 0.00 | 0.33 | 0.00 | 89 | 1023.4 |
| 20260906061604 | 12 | 244 | 3.2 | 8.0 | 0.00 | 0.33 | 0.00 | 90 | 1023.3 |
| 20260906060602 | 12 | 252 | 1.6 | 4.8 | 0.00 | 0.33 | 0.00 | 90 | 1023.3 |
| 20260906055606 | 11 | 250 | 0.0 | 3.2 | 0.00 | 0.33 | 0.00 | 91 | 1023.3 |
| 20260906054603 | 11 | 250 | 0.0 | 4.8 | 0.00 | 0.33 | 0.00 | 90 | 1023.2 |
| 20260906053602 | 11 | 250 | 0.0 | 4.8 | 0.00 | 0.33 | 0.00 | 91 | 1023.2 |
| 20260906052604 | 11 | 250 | 1.6 | 3.2 | 0.00 | 0.33 | 0.00 | 91 | 1023.0 |
| 20260906050603 | 11 | 251 | 1.6 | 4.8 | 0.00 | 0.33 | 0.00 | 90 | 1022.9 |
| 20260906050106 | 11 | 244 | 0.0 | 0.0 | 0.00 | 0.33 | 0.00 | 91 | 1022.7 |
| 20260906043556 | 11 | 244 | 0.0 | 0.0 | 0.00 | 0.33 | 0.00 | 90 | 1022.6 |
| 20260906043035 | 11 | 244 | 0.0 | 4.8 | 0.00 | 0.33 | 0.00 | 89 | 1022.6 |
| 20260906041548 | 11 | 250 | 1.6 | 4.8 | 0.00 | 0.33 | 0.00 | 89 | 1022.5 |
| 20260906041036 | 11 | 250 | 1.6 | 4.8 | 0.00 | 0.33 | 0.00 | 89 | 1022.4 |
| 20260906035537 | 11 | 251 | 3.2 | 8.0 | 0.00 | 0.33 | 0.00 | 90 | 1022.4 |
| 20260906034536 | 11 | 253 | 3.2 | 6.4 | 0.00 | 0.33 | 0.00 | 89 | 1022.4 |
| 20260906033534 | 11 | 251 | 4.8 | 6.4 | 0.00 | 0.33 | 0.00 | 89 | 1022.3 |
| 20260906032529 | 11 | 254 | 3.2 | 6.4 | 0.00 | 0.33 | 0.00 | 89 | 1022.1 |
| 20260906031526 | 11 | 265 | 1.6 | 6.4 | 0.00 | 0.33 | 0.00 | 88 | 1022.1 |
| 20260906030522 | 11 | 269 | 4.8 | 8.0 | 0.00 | 0.33 | 0.00 | 88 | 1021.8 |
| 20260906025517 | 11 | 273 | 3.2 | 12.9 | 0.00 | 0.33 | 0.00 | 88 | 1021.8 |
| 20260906024515 | 11 | 257 | 4.8 | 12.9 | 0.00 | 0.33 | 0.00 | 88 | 1021.8 |
| 20260906023519 | 11 | 277 | 3.2 | 11.3 | 0.00 | 0.33 | 0.00 | 88 | 1021.9 |
| 20260906022508 | 11 | 286 | 4.8 | 12.9 | 0.00 | 0.33 | 0.00 | 88 | 1021.7 |
| 20260906021507 | 11 | 263 | 4.8 | 12.9 | 0.00 | 0.33 | 0.00 | 88 | 1021.7 |
| 20260906020514 | 12 | 267 | 4.8 | 12.9 | 0.00 | 0.33 | 0.00 | 89 | 1021.7 |
| 20260906015506 | 12 | 275 | 6.4 | 17.7 | 0.00 | 0.33 | 0.00 | 89 | 1021.7 |
| 20260906014509 | 12 | 263 | 4.8 | 12.9 | 0.00 | 0.33 | 0.00 | 89 | 1021.6 |
| 20260906013517 | 12 | 261 | 4.8 | 12.9 | 0.00 | 0.33 | 0.00 | 88 | 1021.4 |
| 20260906012506 | 12 | 263 | 6.4 | 12.9 | 0.00 | 0.33 | 0.00 | 88 | 1021.3 |
| 20260906011507 | 12 | 262 | 3.2 | 11.3 | 0.00 | 0.33 | 0.00 | 89 | 1021.3 |
| 20260906010513 | 12 | 215 | 3.2 | 12.9 | 0.00 | 0.33 | 0.00 | 89 | 1021.2 |
| 20260906005508 | 11 | 262 | 4.8 | 14.5 | 0.00 | 0.33 | 0.00 | 89 | 1021.1 |
| 20260906004507 | 11 | 276 | 3.2 | 12.9 | 0.00 | 0.33 | 0.00 | 89 | 1021.1 |
| 20260906003517 | 11 | 257 | 4.8 | 8.0 | 0.00 | 0.33 | 0.00 | 89 | 1021.1 |
| 20260906002506 | 11 | 250 | 4.8 | 14.5 | 0.00 | 0.33 | 0.00 | 89 | 1020.9 |
| 20260906001508 | 11 | 232 | 4.8 | 12.9 | 0.00 | 0.33 | 0.00 | 89 | 1020.9 |
| 20260906000513 | 12 | 246 | 3.2 | 8.0 | 0.00 | 0.33 | 0.00 | 89 | 1020.9 |
| 20260905235508 | 12 | 251 | 6.4 | 12.9 | 0.00 | 0.33 | 0.00 | 89 | 1020.7 |
| 20260905234506 | 12 | 275 | 4.8 | 11.3 | 0.00 | 0.33 | 0.00 | 90 | 1020.7 |
| 20260905233519 | 12 | 262 | 4.8 | 12.9 | 0.00 | 0.33 | 0.00 | 90 | 1020.6 |
| 20260905232508 | 12 | 270 | 6.4 | 12.9 | 0.00 | 0.33 | 0.00 | 90 | 1020.5 |
| 20260905231508 | 12 | 247 | 4.8 | 11.3 | 0.00 | 0.33 | 0.00 | 91 | 1020.5 |
| 20260905230526 | 12 | 257 | 3.2 | 6.4 | 0.00 | 0.33 | 0.00 | 90 | 1020.3 |
| 20260905225522 | 12 | 271 | 4.8 | 12.9 | 0.00 | 0.33 | 0.00 | 90 | 1020.2 |
| 20260905224512 | 12 | 270 | 3.2 | 14.5 | 0.00 | 0.33 | 0.00 | 90 | 1019.9 |
| 20260905223511 | 12 | 258 | 4.8 | 12.9 | 0.00 | 0.33 | 0.00 | 89 | 1020.0 |
| 20260905222506 | 12 | 292 | 6.4 | 14.5 | 0.00 | 0.33 | 0.00 | 88 | 1020.0 |
| 20260905221506 | 13 | 272 | 4.8 | 16.1 | 0.00 | 0.33 | 0.00 | 88 | 1020.0 |
| 20260905220514 | 13 | 267 | 8.0 | 16.1 | 0.00 | 0.36 | 0.00 | 87 | 1019.8 |
| 20260905215507 | 13 | 266 | 8.0 | 17.7 | 0.00 | 0.43 | 0.38 | 87 | 1019.8 |
| 20260905214511 | 13 | 306 | 9.7 | 20.9 | 0.00 | 0.43 | 0.38 | 88 | 1019.8 |
| 20260905213950 | 13 | 261 | 8.0 | 19.3 | 0.00 | 0.43 | 0.38 | 88 | 1019.8 |
| 20260905212507 | 13 | 259 | 9.7 | 22.5 | 0.00 | 0.43 | 0.38 | 87 | 1019.7 |
| 20260905211506 | 13 | 290 | 9.7 | 25.7 | 0.00 | 0.43 | 0.38 | 87 | 1019.5 |
| 20260905210519 | 13 | 324 | 20.9 | 32.2 | 0.00 | 0.43 | 0.38 | 86 | 1019.6 |
| 20260905205943 | 13 | 317 | 8.0 | 19.3 | 0.03 | 0.41 | 0.38 | 87 | 1019.4 |
| 20260905204504 | 13 | 323 | 8.0 | 17.7 | 0.03 | 0.41 | 0.38 | 88 | 1019.3 |
| 20260905203459 | 13 | 252 | 6.4 | 20.9 | 0.03 | 0.41 | 0.38 | 88 | 1019.2 |
| 20260905202936 | 13 | 338 | 8.0 | 20.9 | 0.03 | 0.41 | 0.38 | 88 | 1018.9 |
| 20260905201455 | 13 | 301 | 11.3 | 25.7 | 0.03 | 0.43 | 0.38 | 87 | 1018.8 |
| 20260905200450 | 14 | 288 | 17.7 | 29.0 | 0.03 | 0.43 | 0.38 | 85 | 1019.0 |
| 20260905195928 | 14 | 45 | 9.7 | 22.5 | 0.00 | 0.43 | 0.36 | 81 | 1018.7 |
| 20260905194932 | 14 | 279 | 12.9 | 27.4 | 0.00 | 0.43 | 0.36 | 80 | 1018.5 |
| 20260905193930 | 14 | 304 | 11.3 | 25.7 | 0.00 | 0.43 | 0.36 | 80 | 1018.4 |
| 20260905192443 | 13 | 251 | 8.0 | 22.5 | 0.00 | 0.43 | 0.36 | 80 | 1018.4 |